PDT,Max TemperatureF,Mean TemperatureF,Min TemperatureF,Max Dew PointF,MeanDew PointF,Min DewpointF,Max Humidity, Mean Humidity, Min Humidity, Max Sea Level PressureIn, Mean Sea Level PressureIn, Min Sea Level PressureIn, Max VisibilityMiles, Mean VisibilityMiles, Min VisibilityMiles, Max Wind SpeedMPH, Mean Wind SpeedMPH, Max Gust SpeedMPH,PrecipitationIn, CloudCover, Events, WindDirDegrees
2013-9-1,77,62,48,46,39,32,67,46,31,30.22,30.18,30.12,10,9,4,15,4,18,0.00,3,,236
2013-9-2,73,64,55,50,47,45,67,54,41,30.17,30.14,30.11,10,9,6,20,6,30,0.00,4,,213
2013-9-3,77,66,55,48,46,45,67,53,32,30.21,30.17,30.15,10,10,10,17,5,25,0.00,1,,199
2013-9-4,77,60,44,46,43,39,87,62,34,30.24,30.21,30.17,10,10,10,18,4,28,0.00,1,,246
2013-9-5,73,60,48,41,37,32,67,46,26,30.22,30.17,30.14,10,10,10,26,6,44,0.00,0,,217
2013-9-6,78,55,32,36,32,27,81,51,17,30.25,30.21,30.16,10,10,10,17,4,24,0.00,0,,241
2013-9-7,78,58,37,37,33,27,87,52,15,30.22,30.19,30.14,10,10,8,15,2,22,0.00,0,,219
2013-9-8,80,56,32,36,32,25,100,51,14,30.22,30.18,30.11,10,10,10,15,3,20,0.00,0,,239
2013-9-9,80,58,35,36,31,28,81,48,16,30.20,30.14,30.06,10,10,10,10,2,18,0.00,0,,48
2013-9-10,80,58,35,39,32,27,75,47,15,30.16,30.12,30.06,10,10,10,9,2,17,0.00,1,,194
2013-9-11,78,58,37,39,35,30,81,53,18,30.23,30.19,30.16,10,10,10,14,2,20,0.00,2,,203
2013-9-12,75,56,37,55,43,32,100,72,29,30.22,30.19,30.13,10,8,0,14,1,24,0.08,3,Fog-Rain-Thunderstorm,308
2013-9-13,75,60,46,55,47,41,100,80,29,30.21,30.15,30.08,10,5,0,16,2,22,0.00,5,Fog-Thunderstorm,119
2013-9-14,78,58,37,52,44,37,100,77,24,30.11,30.07,30.02,10,8,0,12,2,,0.00,1,Fog-Thunderstorm,168
2013-9-15,77,57,37,46,38,30,100,60,19,30.09,30.06,30.04,10,9,0,24,4,39,0.00,1,Fog,227
2013-9-16,77,56,35,39,35,30,81,52,21,30.10,30.06,30.02,10,10,10,22,5,33,0.00,0,,264
2013-9-17,66,49,32,39,32,18,80,46,15,30.08,29.99,29.92,10,10,10,20,7,30,0.00,0,,220
2013-9-18,68,46,24,32,27,10,100,62,11,30.15,30.10,30.06,10,9,0,10,2,16,0.00,0,Fog,89
2013-9-19,77,52,26,28,25,14,93,52,10,30.17,30.11,30.05,10,10,10,14,2,20,0.00,0,,256
2013-9-20,71,50,28,32,26,21,80,51,17,30.08,30.00,29.94,10,10,10,23,5,36,0.00,0,,210
2013-9-21,53,45,37,43,36,32,93,73,50,29.96,29.91,29.87,10,9,4,24,12,33,0.00,4,Rain,219
2013-9-22,57,45,32,36,35,30,100,78,41,30.15,30.03,29.94,10,10,10,13,3,17,0.00,4,,245
2013-9-23,69,48,28,39,28,18,100,67,15,30.20,30.16,30.13,10,6,0,15,2,20,0.00,2,Fog,239
2013-9-24,62,47,32,34,29,23,75,47,26,30.15,30.02,29.91,10,10,9,29,9,39,0.00,1,,220
2013-9-25,50,41,32,32,29,19,100,75,30,29.92,29.90,29.86,10,9,1,15,7,24,0.11,5,Rain-Snow,256
2013-9-26,46,35,24,34,26,21,100,78,37,30.13,29.99,29.91,10,8,0,15,3,18,0.00,4,Fog,69
2013-9-27,59,40,21,27,23,18,100,67,21,30.24,30.19,30.13,10,10,3,8,2,,0.00,0,,60
2013-9-28,66,46,26,32,26,19,93,58,26,30.26,30.22,30.18,10,10,8,20,3,26,0.00,1,,207
2013-9-29,60,54,48,34,29,21,54,41,27,30.20,30.16,30.14,10,10,10,23,15,36,0.00,1,,193
2013-9-30,60,46,32,37,34,30,93,60,39,30.17,30.13,30.11,10,10,10,20,11,28,0.00,2,,201